TimeCDT,TemperatureF,Dew PointF,Humidity,Sea Level PressureIn,VisibilityMPH,Wind Direction,Wind SpeedMPH,Gust SpeedMPH,PrecipitationIn,Events,Conditions,WindDirDegrees,DateUTC
12:15 AM,80.6,62.6,54,29.99,10.0,East,10.4,-,N/A,,Clear,90,2013-09-04 05:15:00
12:35 AM,82.4,62.6,51,29.99,10.0,East,11.5,-,N/A,,Clear,100,2013-09-04 05:35:00
12:55 AM,80.6,62.6,54,29.99,10.0,East,10.4,-,N/A,,Clear,90,2013-09-04 05:55:00
1:15 AM,80.6,62.6,54,29.99,10.0,East,10.4,-,N/A,,Clear,100,2013-09-04 06:15:00
1:35 AM,80.6,62.6,54,29.99,10.0,East,9.2,-,N/A,,Clear,90,2013-09-04 06:35:00
1:55 AM,80.6,62.6,54,29.99,10.0,East,10.4,-,N/A,,Clear,100,2013-09-04 06:55:00
2:15 AM,78.8,62.6,57,29.99,10.0,East,8.1,-,N/A,,Clear,100,2013-09-04 07:15:00
2:35 AM,78.8,62.6,57,29.99,10.0,East,8.1,-,N/A,,Clear,90,2013-09-04 07:35:00
2:55 AM,78.8,62.6,57,30.00,10.0,East,8.1,-,N/A,,Clear,90,2013-09-04 07:55:00
3:15 AM,78.8,62.6,57,30.00,10.0,East,9.2,-,N/A,,Clear,100,2013-09-04 08:15:00
3:35 AM,78.8,62.6,57,30.00,10.0,East,10.4,-,N/A,,Clear,100,2013-09-04 08:35:00
3:55 AM,78.8,62.6,57,30.01,10.0,East,9.2,-,N/A,,Clear,100,2013-09-04 08:55:00
4:15 AM,77.0,62.6,61,30.00,10.0,East,9.2,-,N/A,,Clear,90,2013-09-04 09:15:00
4:35 AM,75.2,62.6,65,30.01,10.0,East,8.1,-,N/A,,Clear,90,2013-09-04 09:35:00
4:55 AM,75.2,62.6,65,30.02,10.0,East,9.2,-,N/A,,Clear,80,2013-09-04 09:55:00
5:15 AM,75.2,62.6,65,30.02,10.0,East,10.4,-,N/A,,Clear,80,2013-09-04 10:15:00
5:35 AM,75.2,62.6,65,30.03,10.0,East,11.5,-,N/A,,Clear,80,2013-09-04 10:35:00
5:55 AM,73.4,62.6,69,30.03,10.0,East,10.4,-,N/A,,Clear,80,2013-09-04 10:55:00
6:15 AM,73.4,62.6,69,30.04,10.0,East,11.5,-,N/A,,Clear,80,2013-09-04 11:15:00
6:35 AM,73.4,60.8,65,30.04,10.0,East,12.7,-,N/A,,Clear,80,2013-09-04 11:35:00
6:55 AM,73.4,60.8,65,30.05,10.0,East,10.4,-,N/A,,Clear,90,2013-09-04 11:55:00
7:15 AM,73.4,60.8,65,30.06,10.0,East,10.4,-,N/A,,Clear,90,2013-09-04 12:15:00
7:35 AM,73.4,60.8,65,30.06,10.0,East,10.4,-,N/A,,Clear,90,2013-09-04 12:35:00
7:55 AM,73.4,60.8,65,30.07,10.0,East,10.4,-,N/A,,Scattered Clouds,90,2013-09-04 12:55:00
8:15 AM,75.2,60.8,61,30.08,10.0,East,9.2,-,N/A,,Partly Cloudy,80,2013-09-04 13:15:00
8:35 AM,77.0,60.8,57,30.09,10.0,East,11.5,-,N/A,,Clear,100,2013-09-04 13:35:00
8:55 AM,78.8,60.8,54,30.09,10.0,ESE,11.5,-,N/A,,Clear,110,2013-09-04 13:55:00
9:15 AM,80.6,60.8,51,30.09,10.0,East,12.7,-,N/A,,Clear,100,2013-09-04 14:15:00
9:35 AM,82.4,60.8,48,30.09,10.0,East,13.8,-,N/A,,Clear,100,2013-09-04 14:35:00
9:55 AM,84.2,60.8,45,30.10,10.0,ESE,15.0,18.4,N/A,,Clear,110,2013-09-04 14:55:00
10:15 AM,84.2,60.8,45,30.10,10.0,ESE,15.0,-,N/A,,Clear,110,2013-09-04 15:15:00
10:35 AM,87.8,62.6,43,30.11,10.0,SE,15.0,-,N/A,,Clear,130,2013-09-04 15:35:00
10:55 AM,87.8,62.6,43,30.11,10.0,East,15.0,-,N/A,,Clear,100,2013-09-04 15:55:00
11:15 AM,87.8,62.6,43,30.10,10.0,East,12.7,17.3,N/A,,Clear,100,2013-09-04 16:15:00
11:35 AM,89.6,62.6,40,30.10,10.0,ESE,10.4,20.7,N/A,,Clear,110,2013-09-04 16:35:00
11:55 AM,89.6,62.6,40,30.09,10.0,ESE,11.5,-,N/A,,Clear,110,2013-09-04 16:55:00
12:15 PM,91.4,62.6,38,30.09,10.0,East,12.7,19.6,N/A,,Clear,90,2013-09-04 17:15:00
12:35 PM,91.4,64.4,41,30.08,10.0,East,12.7,-,N/A,,Clear,80,2013-09-04 17:35:00
12:55 PM,91.4,64.4,41,30.08,10.0,ESE,11.5,17.3,N/A,,Clear,120,2013-09-04 17:55:00
1:15 PM,93.2,64.4,38,30.08,10.0,SSE,8.1,-,N/A,,Clear,150,2013-09-04 18:15:00
1:35 PM,93.2,62.6,36,30.08,10.0,SE,10.4,16.1,N/A,,Clear,130,2013-09-04 18:35:00
1:55 PM,93.2,62.6,36,30.07,10.0,SE,10.4,17.3,N/A,,Clear,130,2013-09-04 18:55:00
2:15 PM,93.2,62.6,36,30.07,10.0,ESE,6.9,16.1,N/A,,Clear,110,2013-09-04 19:15:00
2:35 PM,95.0,62.6,34,30.06,10.0,SSE,6.9,17.3,N/A,,Clear,150,2013-09-04 19:35:00
2:55 PM,95.0,62.6,34,30.05,10.0,East,3.5,16.1,N/A,,Clear,80,2013-09-04 19:55:00
3:15 PM,96.8,62.6,32,30.04,10.0,East,10.4,-,N/A,,Clear,100,2013-09-04 20:15:00
3:35 PM,96.8,62.6,32,30.03,10.0,SE,9.2,-,N/A,,Clear,140,2013-09-04 20:35:00
3:55 PM,95.0,62.6,34,30.03,10.0,East,11.5,-,N/A,,Clear,90,2013-09-04 20:55:00
4:15 PM,96.8,62.6,32,30.02,10.0,Calm,Calm,-,N/A,,Clear,0,2013-09-04 21:15:00
4:35 PM,96.8,62.6,32,30.01,10.0,ENE,9.2,-,N/A,,Scattered Clouds,60,2013-09-04 21:35:00
4:55 PM,96.8,60.8,30,30.01,10.0,SE,8.1,-,N/A,,Partly Cloudy,130,2013-09-04 21:55:00
5:15 PM,96.8,60.8,30,30.01,10.0,ENE,9.2,-,N/A,,Clear,70,2013-09-04 22:15:00
5:35 PM,96.8,60.8,30,30.01,10.0,SE,10.4,17.3,N/A,,Clear,130,2013-09-04 22:35:00
5:55 PM,96.8,60.8,30,30.01,10.0,ESE,10.4,-,N/A,,Partly Cloudy,120,2013-09-04 22:55:00
6:15 PM,95.0,60.8,32,30.01,10.0,ESE,10.4,-,N/A,,Partly Cloudy,110,2013-09-04 23:15:00
6:35 PM,93.2,60.8,34,30.01,10.0,East,9.2,-,N/A,,Clear,100,2013-09-04 23:35:00
6:55 PM,93.2,60.8,34,30.01,10.0,East,6.9,-,N/A,,Clear,90,2013-09-04 23:55:00
7:15 PM,91.4,59.0,34,30.02,10.0,East,9.2,-,N/A,,Clear,80,2013-09-05 00:15:00
7:35 PM,89.6,57.2,33,30.02,10.0,East,8.1,-,N/A,,Clear,100,2013-09-05 00:35:00
7:55 PM,87.8,57.2,35,30.02,10.0,East,6.9,-,N/A,,Clear,100,2013-09-05 00:55:00
8:15 PM,84.2,57.2,40,30.02,10.0,East,5.8,-,N/A,,Clear,100,2013-09-05 01:15:00
8:35 PM,84.2,57.2,40,30.03,10.0,East,5.8,-,N/A,,Clear,100,2013-09-05 01:35:00
8:55 PM,82.4,57.2,42,30.04,10.0,East,6.9,-,N/A,,Clear,100,2013-09-05 01:55:00
9:15 PM,82.4,57.2,42,30.05,10.0,East,6.9,-,N/A,,Clear,100,2013-09-05 02:15:00
9:35 PM,80.6,57.2,45,30.06,10.0,East,5.8,-,N/A,,Clear,100,2013-09-05 02:35:00
9:55 PM,80.6,57.2,45,30.07,10.0,ESE,6.9,-,N/A,,Clear,110,2013-09-05 02:55:00
10:15 PM,80.6,57.2,45,30.07,10.0,ESE,6.9,-,N/A,,Clear,110,2013-09-05 03:15:00
10:35 PM,78.8,57.2,47,30.08,10.0,ESE,6.9,-,N/A,,Clear,110,2013-09-05 03:35:00
10:55 PM,78.8,57.2,47,30.08,10.0,East,6.9,-,N/A,,Clear,90,2013-09-05 03:55:00
11:15 PM,77.0,57.2,50,30.08,10.0,East,6.9,-,N/A,,Clear,100,2013-09-05 04:15:00
11:35 PM,77.0,57.2,50,30.08,10.0,East,6.9,-,N/A,,Clear,100,2013-09-05 04:35:00
11:55 PM,77.0,57.2,50,30.08,10.0,East,6.9,-,N/A,,Clear,100,2013-09-05 04:55:00